SL-12 R/B(2), 37140

Orbit data source: Space-Track

SL-12 R/B(2), 37140 is space debris in MEO originally from a launch on Thu, 02 Sep 2010 UTC launched from the Tyuratam Missile And Space Complex (TTMTR). Debris objects in space refer to the collection of defunct objects orbiting the Earth. Examples of debris include non-operational satellites, rocket bodies, and fragments generated from explosions, collisions, or faulty payload assembly.

Loading next visibility...
Identifier
37140, 2010-041D
Orbit
MEO
Country
Flag of CISCIS
Related business
Manufacturer
RKKE
Mission
Spacecraft
Bus & Motor
BLOK DM2, 11D58M
Mass
2,440 kg wet, 2,440 kg dry
Launch date (UTC)
2010-09-02 (15 years ago)
Launch vehicle
Unknown
Launch site
Tyuratam Missile And Space Complex (TTMTR)
Object type
Payload
Rocket body
Debris
Shape & HBR
Cyl, 3.5 m
Radar Cross Section
26.008 m², Large (>1 m²)

Expand to show TLE details & history
Last TLE update: 5 days ago

TLE from 5 days ago
0 SL-12 R/B(2)
1 37140U 10041D   26030.48796013  .00000058  00000-0  00000-0 0  9993
2 37140  63.9151 194.2168 0040614 192.8739 169.6412  2.13453908120116
Epoch: 2026-01-30T11:42Z
TLE epoch observation values (Epoch: 2026-01-30T11:42:39.755Z)
Latitude
2.35136°
Longitude
-110.02211°
Altitude
19,203.895 km
Speed
3.94 km/s
True Right ascension
13h 01m 28s
True Declination
2° 20' 51"
Sunlit
Object was in daylight at epoch
Visualization orbit readout
Latitude
Unknown
Longitude
Unknown
Altitude
Unknown
Speed
Unknown
Apparent Right ascension
Unknown
Apparent Declination
Unknown
Sunlit
N/A
Visualization observer readout
Local Sidereal Time
12:42:45
Azimuth
Unknown
Elevation
Unknown
Doppler factor
Unknown
Orbital elements
Apogee altitude
19,204.98 km
Perigee altitude
18,998.014 km
Semi-major axis
25,479.634 km
Eccentricity
0.00406
Inclination
63.9151°
RAAN
194.2168°
Arg. of periapsis
192.8739°
True anomaly
169.72447°
Mean anomaly
169.6412°
Eccentric anomaly
169.68288°
Mean motion
0.53365 °/min
Orbital period
674.6 mins
BSTAR
0
Loading maneuver chart data...
Computing Atmospheric mass density...
Loading historical data...
Loading historical data...
Loading historical data...
Loading historical data...
Loading historical data...
Loading historical data...
Loading historical data...

Documentation

Showing up to 5 results
|